Regional Weather Roundup
Issued by NWS Charleston, SC

Current Version | Previous Version | Text Only | Print | Product List | Glossary Off
Versions: 1 2 3 4 5 6 7 8 9 10 11 12 13 14 15 16 17 18 19 20 21 22 23 24 25 26 27 28 29 30 31 32 33 34 35 36 37 38 39 40 41 42 43 44 45 46 47 48 49 50

000
ASUS42 KCHS 230313
RWRCHS

REGIONAL WEATHER ROUNDUP
NATIONAL WEATHER SERVICE CHARLESTON SC
1100 PM EDT FRI JUL 22 2016

NOTE: "FAIR" INDICATES FEW OR NO CLOUDS BELOW 12,000 FEET WITH NO
SIGNIFICANT WEATHER AND/OR OBSTRUCTIONS TO VISIBILITY.

NOT ALL STATIONS ARE QUALITY CONTROLLED. USE DATA WITH CAUTION...
ESPECIALLY DEWPOINT OBSERVATIONS.

SCZ027-030-031-034>040-042>050-230400-
...SOUTHEAST SOUTH CAROLINA...

CITY           SKY/WX    TMP DP  RH WIND       PRES   REMARKS
N CHARLESTON   PTCLDY    80  74  81 S7        30.04S
WATERFRONT PRK   N/A     84  76  77 S7        30.02S HX  93
MOUNT PLEASANT FAIR      79  73  83 CALM      30.04F
JOHNS ISLAND   FAIR      82  75  78 S7        30.05S
PINOPOLIS        N/A     81  75  83 VRB2      29.97
MONCKS CORNER  FAIR      77  72  83 S3        30.04S
SUMMERVILLE    FAIR      79  77  94 CALM      30.05R
BEAUFORT MCAS  CLEAR     84  75  74 S6        30.04S HX  92
BEAUFORT ARPT  FAIR      81  75  83 S6        30.04S
HILTON HEAD IS CLEAR     84  75  74 S7        30.06S HX  92
WALTERBORO     PTCLDY    82  75  78 S5        30.05R
ALLENDALE      FAIR      82  75  78 S3        30.03R

...SOUTHERN MIDLANDS AND PEE DEE...

CITY           SKY/WX    TMP DP  RH WIND       PRES   REMARKS
GEORGETOWN     FAIR      77  72  83 S3        30.06R
KINGSTREE      FAIR      79  72  78 S5        30.03S
ORANGEBURG     MOCLDY    81  75  82 S6        30.04R
BARNWELL       NOT AVBL
AIKEN          FAIR      77  72  83 S5        30.07R
MANNING        FAIR      81  75  83 S6        30.03S
COLUMBIA       PTCLDY    84  73  69 S5        30.01S HX  90
SUMTER         PTCLDY    81  75  82 S8        30.00S
FLORENCE       CLOUDY    82  74  76 S7        30.03R
MYRTLE BEACH   NOT AVBL
N MYRTLE BEACH CLEAR     83  72  69 S9        30.04S

$$

GAZ063-065-086>088-099>101-113>116-118-119-134>141-150-230400-
...SOUTHEAST GEORGIA...

CITY           SKY/WX    TMP DP  RH WIND       PRES   REMARKS
SAVANNAH ARPT  PTCLDY    80  74  81 S3        30.05S
HUNTER AAF     CLEAR     82  78  87 SE5       30.02S HX  90
FORT STEWART   CLEAR     81  73  76 VRB1      30.03S
STATESBORO     PTCLDY    81  77  88 S5        30.04S
SYLVANIA       NOT AVBL
CLAXTON        FAIR      79  75  87 CALM      30.05R

...CSRA...CENTRAL AND FAR SOUTHEAST GEORGIA...

CITY           SKY/WX    TMP DP  RH WIND       PRES   REMARKS
THOMSON        CLEAR     81  76  84 CALM      30.08R
AUGUSTA-BUSH   CLEAR     80  73  79 S3        30.02R
AUGUSTA-DANIEL PTCLDY    85  72  65 VRB3      30.04R HX  91
SWAINSBORO     FAIR      79  75  89 SE3       30.05F
VIDALIA        PTCLDY    82  72  69 S5        30.05R
EASTMAN        FAIR      80  76  86 CALM      30.06S
HAZLEHURST     FAIR      81  73  77 CALM      30.04S
ALMA           CLOUDY    78  77  96 E5        30.06S
WAYCROSS       CLEAR     83  76  79 SW5       30.06S HX  91
JESUP          FAIR      81  77  89 CALM      30.06R
BAXLEY         TSTM      73  73 100 SE9       30.07S
BRUNSWICK      CLEAR     84  79  84 S7        30.06S HX  96
SAINT SIMONS   CLEAR     85  74  69 S8        30.05S HX  92

$$

SCZ027-028-034-036>038-045-046-048>050-GAZ119-141-230400-
...LAKE AND SUPPLEMENTAL COASTAL OBSERVATIONS...

STATION/POSITION TIME  TEMP    WIND        PRES    WAVE   SWELL
                       AIR SEA DIR/SP/G            HT/PER HT/PER/DIR
                 (UTC) (F)     (DEG/KT/KT) (MB)    (FT/S) (FT/S/D)
WINYAH BAY       NOT AVBL
LAKE MURRAY      0200   88     200/  8/  9 1015.6R
ACE BASIN NERRS  NOT AVBL
FORT PULASKI     0200   84 88  170/  3/  6   N/A
SAPELO ISLAND    0200   85     160/  9     1018.0R

$$

ANZ835-935-AMZ111-154-330-350-352-354-370-450-454-472-230400-
...C-MAN AND BUOY OBSERVATIONS...

STATION/POSITION TIME  TEMP    WIND        PRES    WAVE   SWELL
                       AIR SEA DIR/SP/G            HT/PER HT/PER/DIR
                 (UTC) (F)     (DEG/KT/KT) (MB)    (FT/S) (FT/S/D)
BUOY 41004       0250   84 86  180/  8/ 10 1017.1F   3/ 9   3/120/ 9
BUOY 41008       0250   85 87  150/ 12/ 14 1017.4R   2/ 9   2/ 90/ 9
FOLLY BEACH CMAN 0300   85     180/ 12/ 13 1017.6S
CAPERS NEARSHORE 0208   85 85  200/ 10/ 12 1017.2R
FRIPP NEARSHORE  0208   85 87  180/ 12/ 14 1017.0R


STATION/POSITION TIME  TEMP    WIND        PRES    WAVE   SWELL
                       AIR SEA DIR/SP/G            HT/PER HT/PER/DIR
                 (UTC) (F)     (DEG/KT/KT) (MB)    (FT/S) (FT/S/D)
5E ST. MARYS GA  0201      87                N/A     3/ 9
FRYING PAN BUOY  0200   84 87  160/  8/ 10 1017.0R
BUOY 41025       0250   83 87  210/ 14/ 16 1016.7R   2/ 8   2/120/ 8
CAPE LOOKOUT NC  0300   82     200/  8/ 11 1016.6R
BUOY 41002       0250   83 86  100/  4/  6 1017.5R   3/ 9   3/ 90/ 9
BUOY 41010       0220   84 87   40/  2/  4 1017.6R
ST AUGUSTINE FL  0300   83 88  190/  4/  5 1018.7F


$$




USA.gov is the U.S. government's official web portal to all federal, state and local government web resources and services.